Find Starlink 35322

NORAD ID: 66332 Int'l Des: 2025-253 Owner: SPXS Country: US Constellation: starlink operational
LEOCIRCULAR

Aktuelle Ansicht

3D-Globus wird geladen...

Über Starlink 35322

Beschreibung wird geladen...

Nächste Überflüge

Passes for default location (London). Set your location on the main map for personalized predictions.

Höhenverlauf

Loading altitude history...

Zweizeiliger Elementsatz

1 66332U 25253P 26145.95959088 .00023412 00000-0 85729-3 0 9994
2 66332 42.9974 135.9835 0000342 313.8990 46.1834 15.27592140 32066
Epoch: 25. Mai 2026 • Age: 17 hours

Aktueller Status

Höhe 493.1 km
Geschwindigkeit 7.62 km/s
Subsatellitenpunkt -35.97°S, 43.49°W
Startdatum 6. Nov. 2025
Alter 0.5 years
Typ internet

Technische Details

Klassifizierung Payload
Masse 575.00 kg
Trockenmasse 530.00 kg
Gesamtmasse 575.00 kg
Länge 0.30 m
Durchmesser 4.10 m
Spannweite 29.00 m
Form Box + pan
Hersteller SPXS
Bus-Typ Starlink V2MO
Phasenstatus In Orbit
Besitzer/Staat SPXS/US

Most Searched